Miscellaneous Local Product
Issued by NWS Hastings, NE

Current Version | Previous Version | Text Only | Print | Product List | Glossary On
Versions: 1 2 3 4 5 6 7 8 9 10 11 12 13 14 15 16 17 18 19 20 21 22 23 24 25 26 27 28 29 30 31 32 33 34 35 36 37 38 39 40 41 42 43 44 45 46 47 48 49 50
000
AXUS43 KGID 012102
MISGRI

GID CWA HOURLY WEATHER ROUNDUP
NATIONAL WEATHER SERVICE HASTINGS NE
400 PM CDT MON SEP 01 2014

NOTE: "FAIR" INDICATES FEW OR NO CLOUDS BELOW 12,000 FEET WITH NO
SIGNIFICANT WEATHER AND/OR OBSTRUCTIONS TO VISIBILITY.

...SOUTH CENTRAL NEBRASKA...

CITY           SKY/WX    TMP DP  RH WIND       PRES   REMARKS
GRAND ISLAND   PTSUNNY   74  56  53 W8        29.92S
HASTINGS       PTSUNNY   73  57  57 NW7       29.93F
KEARNEY        CLOUDY    70  55  60 E7        29.90F
ORD            MOSUNNY   75  53  46 VRB5      29.89F
YORK           CLOUDY    75 N/A N/A W3        29.91S
AURORA         PTSUNNY   74  58  58 CALM      29.91S
LEXINGTON      PTSUNNY   70  58  65 CALM      29.94F
HOLDREGE       CLOUDY    70  59  68 CALM      29.92F
HEBRON         MOSUNNY   76  56  49 CALM      29.91S

...NEBRASKA PANHANDLE...

CITY           SKY/WX    TMP DP  RH WIND       PRES   REMARKS
CHADRON        TSTM      70  49  47 W23G29    29.90S
ALLIANCE       MOSUNNY   75  43  31 SW15G23   29.90F
SCOTTSBLUFF    SUNNY     80  39  23 W17G29    29.90F
SIDNEY         MOSUNNY   78  46  32 SW16G22   29.97F

...WESTERN AND NORTH CENTRAL NEBRASKA...

CITY           SKY/WX    TMP DP  RH WIND       PRES   REMARKS
VALENTINE      SUNNY     78  45  30 CALM      29.87F
AINSWORTH      SUNNY     75  43  31 CALM      29.90F
ONEILL         SUNNY     77  53  42 NW6       29.89F
BROKEN BOW     MOSUNNY   77  52  41 S5        29.91F
IMPERIAL       MOSUNNY   76  47  35 SW6       29.96F
NORTH PLATTE   MOSUNNY   75  56  51 S13       29.93F
MCCOOK         MOSUNNY   77  51  40 N3        29.94F

...EASTERN NEBRASKA...

CITY           SKY/WX    TMP DP  RH WIND       PRES   REMARKS
NORFOLK        MOSUNNY   80  56  43 VRB5      29.87F
SO SIOUX CITY  SUNNY     79  60  52 VRB6      29.84F
TEKAMAH        MOSUNNY   79  60  52 NW5       29.86F
COLUMBUS       MOSUNNY   79  55  44 NW5       29.89F
ALBION         PTSUNNY   79  58  49 SW7       29.89S
OMAHA EPPLEY   PTSUNNY   79  60  52 W3        29.87F
OFFUTT AFB     PTSUNNY   79  63  58 W8        29.86F
MILLARD        PTSUNNY   79  61  54 CALM      29.86F
LINCOLN        PTSUNNY   77  59  53 SW5       29.89F
NEBRASKA CITY  PTSUNNY   76  60  58 SW5       29.88S
BEATRICE       MOSUNNY   76  63  63 W5        29.90S
FALLS CITY     MOSUNNY   82  62  50 N3        29.87F

...NORTHERN KANSAS...

CITY           SKY/WX    TMP DP  RH WIND       PRES   REMARKS
GOODLAND       SUNNY     80  47  31 VRB3      29.97F
HILL CITY      SUNNY     81  53  37 N7        29.93F
NORTON         PTCLDY    79  43  27 E6        29.92F
PHILLIPSBURG   SUNNY     79  52  38 CALM      29.91F
SMITH CENTER   SUNNY     75  59  57 W3        29.92S
HAYS           PTSUNNY   79  61  53 N6        29.91F
RUSSELL        PTSUNNY   79  63  57 E8        29.89F
CONCORDIA      MOSUNNY   80  63  55 VRB6      29.89F
SALINA         CLOUDY    78  65  63 E6        29.89F
TOPEKA         CLOUDY    80  67  64 CALM      29.88F



USA.gov is the U.S. government's official web portal to all federal, state and local government web resources and services.